Time,TemperatureF,DewpointF,PressureIn,WindDirection,WindDirectionDegrees,WindSpeedMPH,WindSpeedGustMPH,Humidity,HourlyPrecipIn,Conditions,Clouds,dailyrainin,SoftwareType,DateUTC
2013-06-05 00:02:00,55.6,36.2,30.47,NE,37,0.0,0.0,48,0.00,,,0.00,WeatherCatV1.12B45,2013-06-05 07:02:00,
2013-06-05 00:07:00,55.4,36.0,30.47,NE,37,0.0,0.0,48,0.00,,,0.00,WeatherCatV1.12B45,2013-06-05 07:07:00,
2013-06-05 00:12:00,55.2,36.4,30.47,NE,37,0.0,0.0,49,0.00,,,0.00,WeatherCatV1.12B45,2013-06-05 07:12:00,
2013-06-05 00:17:00,55.0,35.7,30.47,NE,37,0.0,0.0,48,0.00,,,0.00,WeatherCatV1.12B45,2013-06-05 07:17:00,
2013-06-05 00:22:00,55.2,35.9,30.47,NE,37,0.0,0.0,48,0.00,,,0.00,WeatherCatV1.12B45,2013-06-05 07:22:00,
2013-06-05 00:27:00,55.0,35.7,30.47,NE,37,0.0,0.0,48,0.00,,,0.00,WeatherCatV1.12B45,2013-06-05 07:27:00,
2013-06-05 00:32:00,55.0,35.7,30.47,NE,37,0.0,0.0,48,0.00,,,0.00,WeatherCatV1.12B45,2013-06-05 07:32:00,
2013-06-05 00:37:00,55.0,35.7,30.47,NE,37,0.0,0.0,48,0.00,,,0.00,WeatherCatV1.12B45,2013-06-05 07:37:00,
2013-06-05 00:42:00,54.7,35.9,30.47,NE,37,0.0,0.0,49,0.00,,,0.00,WeatherCatV1.12B45,2013-06-05 07:42:00,
2013-06-05 00:47:00,54.5,35.7,30.47,NE,37,0.0,0.0,49,0.00,,,0.00,WeatherCatV1.12B45,2013-06-05 07:47:00,
2013-06-05 00:52:00,54.3,36.1,30.47,NE,37,0.0,0.0,50,0.00,,,0.00,WeatherCatV1.12B45,2013-06-05 07:52:00,
2013-06-05 00:57:00,54.1,35.9,30.47,NE,37,0.0,0.0,50,0.00,,,0.00,WeatherCatV1.12B45,2013-06-05 07:57:00,
2013-06-05 01:02:00,54.0,36.2,30.47,NE,37,0.0,0.0,51,0.00,,,0.00,WeatherCatV1.12B45,2013-06-05 08:02:00,
2013-06-05 01:07:00,53.8,35.6,30.47,NE,37,0.0,0.0,50,0.00,,,0.00,WeatherCatV1.12B45,2013-06-05 08:07:00,
2013-06-05 01:12:00,53.8,35.6,30.47,NE,37,0.0,0.0,50,0.00,,,0.00,WeatherCatV1.12B45,2013-06-05 08:12:00,
2013-06-05 01:17:00,53.6,35.4,30.47,NE,37,0.0,0.0,50,0.00,,,0.00,WeatherCatV1.12B45,2013-06-05 08:17:00,
2013-06-05 01:22:00,53.4,35.7,30.47,NE,37,0.0,0.0,51,0.00,,,0.00,WeatherCatV1.12B45,2013-06-05 08:22:00,
2013-06-05 01:27:00,53.1,35.4,30.47,NE,37,0.0,0.0,51,0.00,,,0.00,WeatherCatV1.12B45,2013-06-05 08:27:00,
2013-06-05 01:32:00,53.1,35.4,30.47,NE,37,0.0,0.0,51,0.00,,,0.00,WeatherCatV1.12B45,2013-06-05 08:32:00,
2013-06-05 01:37:00,53.1,35.4,30.47,NE,37,0.0,0.0,51,0.00,,,0.00,WeatherCatV1.12B45,2013-06-05 08:37:00,
2013-06-05 01:42:00,52.7,35.6,30.47,NE,37,0.0,0.0,52,0.00,,,0.00,WeatherCatV1.12B45,2013-06-05 08:42:00,
2013-06-05 01:47:00,52.5,35.4,30.47,NE,37,0.0,0.0,52,0.00,,,0.00,WeatherCatV1.12B45,2013-06-05 08:47:00,
2013-06-05 01:52:00,52.2,35.6,30.47,NE,37,0.0,0.0,53,0.00,,,0.00,WeatherCatV1.12B45,2013-06-05 08:52:00,
2013-06-05 01:57:00,51.8,35.7,30.47,NE,37,0.0,0.0,54,0.00,,,0.00,WeatherCatV1.12B45,2013-06-05 08:57:00,
2013-06-05 02:02:00,51.4,36.3,30.47,NE,37,0.0,0.0,56,0.00,,,0.00,WeatherCatV1.12B45,2013-06-05 09:02:00,
2013-06-05 02:07:00,51.3,37.4,30.47,NE,37,0.0,0.0,59,0.00,,,0.00,WeatherCatV1.12B45,2013-06-05 09:07:00,
2013-06-05 02:12:00,51.3,38.3,30.47,NE,37,0.0,0.0,61,0.00,,,0.00,WeatherCatV1.12B45,2013-06-05 09:12:00,
2013-06-05 02:17:00,51.3,38.7,30.47,NE,37,0.0,0.0,62,0.00,,,0.00,WeatherCatV1.12B45,2013-06-05 09:17:00,
2013-06-05 02:22:00,51.3,38.3,30.47,NE,37,0.0,0.0,61,0.00,,,0.00,WeatherCatV1.12B45,2013-06-05 09:22:00,
2013-06-05 02:27:00,51.3,38.7,30.47,NE,37,0.0,0.0,62,0.00,,,0.00,WeatherCatV1.12B45,2013-06-05 09:27:00,
2013-06-05 02:32:00,51.1,38.5,30.47,NE,37,0.0,0.0,62,0.00,,,0.00,WeatherCatV1.12B45,2013-06-05 09:32:00,
2013-06-05 02:37:00,50.9,38.8,30.47,NE,37,0.0,0.0,63,0.00,,,0.00,WeatherCatV1.12B45,2013-06-05 09:37:00,
2013-06-05 02:42:00,50.9,38.8,30.47,NE,37,0.0,0.0,63,0.00,,,0.00,WeatherCatV1.12B45,2013-06-05 09:42:00,
2013-06-05 02:47:00,50.9,38.8,30.47,NE,37,0.0,0.0,63,0.00,,,0.00,WeatherCatV1.12B45,2013-06-05 09:47:00,
2013-06-05 02:52:00,50.7,38.6,30.47,NE,37,0.0,0.0,63,0.00,,,0.00,WeatherCatV1.12B45,2013-06-05 09:52:00,
2013-06-05 02:57:00,50.5,38.4,30.47,NE,37,0.0,0.0,63,0.00,,,0.00,WeatherCatV1.12B45,2013-06-05 09:57:00,
2013-06-05 03:02:00,50.4,38.2,30.47,NE,37,0.0,0.0,63,0.00,,,0.00,WeatherCatV1.12B45,2013-06-05 10:02:00,
2013-06-05 03:07:00,50.2,38.1,30.47,NE,37,0.0,0.0,63,0.00,,,0.00,WeatherCatV1.12B45,2013-06-05 10:07:00,
2013-06-05 03:12:00,50.0,37.9,30.47,NE,37,0.0,0.0,63,0.00,,,0.00,WeatherCatV1.12B45,2013-06-05 10:12:00,
2013-06-05 03:17:00,49.5,37.4,30.47,NE,37,0.0,0.0,63,0.00,,,0.00,WeatherCatV1.12B45,2013-06-05 10:17:00,
2013-06-05 03:22:00,49.1,37.1,30.47,NE,37,0.0,0.0,63,0.00,,,0.00,WeatherCatV1.12B45,2013-06-05 10:22:00,
2013-06-05 03:27:00,49.1,37.5,30.47,NE,37,0.0,0.0,64,0.00,,,0.00,WeatherCatV1.12B45,2013-06-05 10:27:00,
2013-06-05 03:32:00,48.9,37.3,30.47,NE,37,0.0,0.0,64,0.00,,,0.00,WeatherCatV1.12B45,2013-06-05 10:32:00,
2013-06-05 03:37:00,48.9,37.7,30.47,NE,37,0.0,0.0,65,0.00,,,0.00,WeatherCatV1.12B45,2013-06-05 10:37:00,
2013-06-05 03:42:00,48.9,38.1,30.47,NE,37,0.0,0.0,66,0.00,,,0.00,WeatherCatV1.12B45,2013-06-05 10:42:00,
2013-06-05 03:47:00,48.7,37.9,30.47,NE,37,0.0,0.0,66,0.00,,,0.00,WeatherCatV1.12B45,2013-06-05 10:47:00,
2013-06-05 03:52:00,48.7,38.3,30.47,NE,37,0.0,0.0,67,0.00,,,0.00,WeatherCatV1.12B45,2013-06-05 10:52:00,
2013-06-05 03:57:00,48.7,38.3,30.47,NE,37,0.0,0.0,67,0.00,,,0.00,WeatherCatV1.12B45,2013-06-05 10:57:00,
2013-06-05 04:02:00,48.6,38.1,30.47,NE,37,0.0,0.0,67,0.00,,,0.00,WeatherCatV1.12B45,2013-06-05 11:02:00,
2013-06-05 04:07:00,48.6,38.5,30.47,NE,37,0.0,0.0,68,0.00,,,0.00,WeatherCatV1.12B45,2013-06-05 11:07:00,
2013-06-05 04:12:00,48.6,38.5,30.47,NE,37,0.0,0.0,68,0.00,,,0.00,WeatherCatV1.12B45,2013-06-05 11:12:00,
2013-06-05 04:17:00,48.4,38.3,30.47,NE,37,0.0,0.0,68,0.00,,,0.00,WeatherCatV1.12B45,2013-06-05 11:17:00,
2013-06-05 04:22:00,48.0,38.0,30.47,NE,37,0.0,0.0,68,0.00,,,0.00,WeatherCatV1.12B45,2013-06-05 11:22:00,
2013-06-05 04:27:00,47.7,37.6,30.47,NE,37,0.0,0.0,68,0.00,,,0.00,WeatherCatV1.12B45,2013-06-05 11:27:00,
2013-06-05 04:32:00,47.7,37.6,30.47,NE,37,0.0,0.0,68,0.00,,,0.00,WeatherCatV1.12B45,2013-06-05 11:32:00,
2013-06-05 04:37:00,47.5,37.8,30.47,NE,37,0.0,0.0,69,0.00,,,0.00,WeatherCatV1.12B45,2013-06-05 11:37:00,
2013-06-05 04:42:00,47.5,37.8,30.47,NE,37,0.0,0.0,69,0.00,,,0.00,WeatherCatV1.12B45,2013-06-05 11:42:00,
2013-06-05 04:47:00,47.7,38.0,30.47,NE,37,0.0,0.0,69,0.00,,,0.00,WeatherCatV1.12B45,2013-06-05 11:47:00,
2013-06-05 04:52:00,47.7,38.0,30.47,NE,37,0.0,0.0,69,0.00,,,0.00,WeatherCatV1.12B45,2013-06-05 11:52:00,
2013-06-05 04:57:00,47.7,38.4,30.47,NE,37,0.0,0.0,70,0.00,,,0.00,WeatherCatV1.12B45,2013-06-05 11:57:00,
2013-06-05 05:02:00,47.5,37.8,30.47,NE,37,0.0,0.0,69,0.00,,,0.00,WeatherCatV1.12B45,2013-06-05 12:02:00,
2013-06-05 05:07:00,47.3,37.7,30.47,NE,37,0.0,0.0,69,0.00,,,0.00,WeatherCatV1.12B45,2013-06-05 12:07:00,
2013-06-05 05:12:00,47.3,38.0,30.47,NE,37,0.0,0.0,70,0.00,,,0.00,WeatherCatV1.12B45,2013-06-05 12:12:00,
2013-06-05 05:17:00,47.3,38.0,30.47,NE,37,0.0,0.0,70,0.00,,,0.00,WeatherCatV1.12B45,2013-06-05 12:17:00,
2013-06-05 05:22:00,47.3,38.0,30.47,NE,37,0.0,0.0,70,0.00,,,0.00,WeatherCatV1.12B45,2013-06-05 12:22:00,
2013-06-05 05:27:00,47.3,38.0,30.47,NE,37,0.0,0.0,70,0.00,,,0.00,WeatherCatV1.12B45,2013-06-05 12:27:00,
2013-06-05 05:32:00,47.3,38.0,30.47,NE,37,0.0,0.0,70,0.00,,,0.00,WeatherCatV1.12B45,2013-06-05 12:32:00,
2013-06-05 05:37:00,47.5,38.6,30.47,NE,37,0.0,0.0,71,0.00,,,0.00,WeatherCatV1.12B45,2013-06-05 12:37:00,
2013-06-05 05:42:00,47.5,38.6,30.47,NE,37,0.0,0.0,71,0.00,,,0.00,WeatherCatV1.12B45,2013-06-05 12:42:00,
2013-06-05 05:47:00,47.5,38.6,30.47,NE,37,0.0,0.0,71,0.00,,,0.00,WeatherCatV1.12B45,2013-06-05 12:47:00,
2013-06-05 05:52:00,47.7,38.7,30.47,NE,37,0.0,0.0,71,0.00,,,0.00,WeatherCatV1.12B45,2013-06-05 12:52:00,
2013-06-05 05:57:00,47.8,39.3,30.47,NE,37,0.0,0.0,72,0.00,,,0.00,WeatherCatV1.12B45,2013-06-05 12:57:00,
2013-06-05 06:02:00,48.2,39.6,30.47,NE,37,0.0,0.0,72,0.00,,,0.00,WeatherCatV1.12B45,2013-06-05 13:02:00,
2013-06-05 06:07:00,48.4,39.8,30.47,NE,37,0.0,0.0,72,0.00,,,0.00,WeatherCatV1.12B45,2013-06-05 13:07:00,
2013-06-05 06:12:00,48.6,39.9,30.47,NE,37,0.0,0.0,72,0.00,,,0.00,WeatherCatV1.12B45,2013-06-05 13:12:00,
2013-06-05 06:17:00,48.7,40.1,30.47,NE,37,0.0,0.0,72,0.00,,,0.00,WeatherCatV1.12B45,2013-06-05 13:17:00,
2013-06-05 06:22:00,49.1,40.8,30.47,NE,37,0.0,0.0,73,0.00,,,0.00,WeatherCatV1.12B45,2013-06-05 13:22:00,
2013-06-05 06:27:00,49.8,42.6,30.47,NE,37,0.0,0.0,76,0.00,,,0.00,WeatherCatV1.12B45,2013-06-05 13:27:00,
2013-06-05 06:32:00,50.2,42.6,30.47,NE,37,0.0,0.0,75,0.00,,,0.00,WeatherCatV1.12B45,2013-06-05 13:32:00,
2013-06-05 06:37:00,50.5,42.6,30.47,NE,37,0.0,0.0,74,0.00,,,0.00,WeatherCatV1.12B45,2013-06-05 13:37:00,
2013-06-05 06:42:00,50.9,41.8,30.47,NE,37,0.0,0.0,71,0.00,,,0.00,WeatherCatV1.12B45,2013-06-05 13:42:00,
2013-06-05 06:47:00,51.6,41.8,30.47,NE,37,0.0,0.0,69,0.00,,,0.00,WeatherCatV1.12B45,2013-06-05 13:47:00,
2013-06-05 06:52:00,51.8,40.8,30.47,NE,37,0.0,0.0,66,0.00,,,0.00,WeatherCatV1.12B45,2013-06-05 13:52:00,
2013-06-05 06:57:00,51.8,40.4,30.47,NE,37,0.0,0.0,65,0.00,,,0.00,WeatherCatV1.12B45,2013-06-05 13:57:00,
2013-06-05 07:02:00,53.4,41.1,30.47,NE,37,0.0,0.0,63,0.00,,,0.00,WeatherCatV1.12B45,2013-06-05 14:02:00,
2013-06-05 07:07:00,55.8,40.3,30.47,NE,37,0.0,0.0,56,0.00,,,0.00,WeatherCatV1.12B45,2013-06-05 14:07:00,
2013-06-05 07:12:00,55.0,37.7,30.47,NE,37,0.0,0.0,52,0.00,,,0.00,WeatherCatV1.12B45,2013-06-05 14:12:00,
2013-06-05 07:17:00,54.5,37.2,30.47,NE,37,0.0,0.0,52,0.00,,,0.00,WeatherCatV1.12B45,2013-06-05 14:17:00,
2013-06-05 07:22:00,54.9,37.1,30.47,NE,37,0.0,0.0,51,0.00,,,0.00,WeatherCatV1.12B45,2013-06-05 14:22:00,
2013-06-05 07:27:00,57.7,37.6,30.47,NE,37,0.0,0.0,47,0.00,,,0.00,WeatherCatV1.12B45,2013-06-05 14:27:00,
2013-06-05 07:32:00,61.5,39.4,30.47,NNE,13,0.0,2.7,44,0.00,,,0.00,WeatherCatV1.12B45,2013-06-05 14:32:00,
2013-06-05 07:37:00,65.5,37.8,30.47,ENE,68,0.0,0.0,36,0.00,,,0.00,WeatherCatV1.12B45,2013-06-05 14:37:00,
2013-06-05 07:42:00,67.6,37.5,30.47,ENE,68,0.0,0.0,33,0.00,,,0.00,WeatherCatV1.12B45,2013-06-05 14:42:00,
2013-06-05 07:47:00,69.4,36.6,30.47,ENE,67,0.0,0.0,30,0.00,,,0.00,WeatherCatV1.12B45,2013-06-05 14:47:00,
2013-06-05 07:52:00,70.2,36.4,30.47,ENE,67,0.0,0.0,29,0.00,,,0.00,WeatherCatV1.12B45,2013-06-05 14:52:00,
2013-06-05 07:57:00,70.5,34.9,30.47,NNE,23,0.0,0.0,27,0.00,,,0.00,WeatherCatV1.12B45,2013-06-05 14:57:00,
2013-06-05 08:02:00,70.7,34.1,30.47,NNE,32,0.0,0.0,26,0.00,,,0.00,WeatherCatV1.12B45,2013-06-05 15:02:00,
2013-06-05 08:07:00,70.5,33.0,30.47,NE,51,0.0,0.0,25,0.00,,,0.00,WeatherCatV1.12B45,2013-06-05 15:07:00,
2013-06-05 08:12:00,69.8,32.4,30.47,NE,50,2.2,4.0,25,0.00,,,0.00,WeatherCatV1.12B45,2013-06-05 15:12:00,
2013-06-05 08:17:00,70.3,32.8,30.47,NE,36,4.0,4.0,25,0.00,,,0.00,WeatherCatV1.12B45,2013-06-05 15:17:00,
2013-06-05 08:22:00,70.7,33.1,30.47,NE,39,3.1,3.1,25,0.00,,,0.00,WeatherCatV1.12B45,2013-06-05 15:22:00,
2013-06-05 08:27:00,71.4,32.7,30.47,NNE,29,2.2,4.9,24,0.00,,,0.00,WeatherCatV1.12B45,2013-06-05 15:27:00,
2013-06-05 08:32:00,72.0,33.2,30.47,NNE,29,0.0,0.0,24,0.00,,,0.00,WeatherCatV1.12B45,2013-06-05 15:32:00,
2013-06-05 08:37:00,72.9,33.9,30.47,NNE,20,4.0,5.8,24,0.00,,,0.00,WeatherCatV1.12B45,2013-06-05 15:37:00,
2013-06-05 08:42:00,73.6,33.5,30.47,NNE,16,4.0,4.0,23,0.00,,,0.00,WeatherCatV1.12B45,2013-06-05 15:42:00,
2013-06-05 08:47:00,73.8,33.6,30.47,NNE,25,2.2,2.7,23,0.00,,,0.00,WeatherCatV1.12B45,2013-06-05 15:47:00,
2013-06-05 08:52:00,74.1,33.9,30.47,NNE,23,2.7,4.0,23,0.00,,,0.00,WeatherCatV1.12B45,2013-06-05 15:52:00,
2013-06-05 08:57:00,75.4,36.1,30.47,NNE,24,0.0,0.0,24,0.00,,,0.00,WeatherCatV1.12B45,2013-06-05 15:57:00,
2013-06-05 09:02:00,75.7,34.2,30.47,NE,38,0.0,3.6,22,0.00,,,0.00,WeatherCatV1.12B45,2013-06-05 16:02:00,
2013-06-05 09:07:00,76.6,34.9,30.47,NE,37,0.0,0.0,22,0.00,,,0.00,WeatherCatV1.12B45,2013-06-05 16:07:00,
2013-06-05 09:12:00,77.4,34.4,30.47,NE,48,0.0,0.0,21,0.00,,,0.00,WeatherCatV1.12B45,2013-06-05 16:12:00,
2013-06-05 09:17:00,77.7,34.7,30.47,NNE,20,4.0,4.0,21,0.00,,,0.00,WeatherCatV1.12B45,2013-06-05 16:17:00,
2013-06-05 09:22:00,76.5,33.6,30.47,NNE,30,2.7,2.7,21,0.00,,,0.00,WeatherCatV1.12B45,2013-06-05 16:22:00,
2013-06-05 09:27:00,72.7,31.6,30.47,East,88,0.0,0.0,22,0.00,,,0.00,WeatherCatV1.12B45,2013-06-05 16:27:00,
2013-06-05 09:32:00,75.4,33.9,30.47,ENE,77,0.0,2.2,22,0.00,,,0.00,WeatherCatV1.12B45,2013-06-05 16:32:00,
2013-06-05 09:37:00,76.1,33.3,30.47,ENE,71,0.0,0.0,21,0.00,,,0.00,WeatherCatV1.12B45,2013-06-05 16:37:00,
2013-06-05 09:42:00,76.5,33.6,30.47,NE,41,2.7,3.1,21,0.00,,,0.00,WeatherCatV1.12B45,2013-06-05 16:42:00,
2013-06-05 09:47:00,76.6,34.9,30.47,NE,39,2.7,3.6,22,0.00,,,0.00,WeatherCatV1.12B45,2013-06-05 16:47:00,
2013-06-05 09:52:00,75.2,32.6,30.47,NE,52,2.2,4.9,21,0.00,,,0.00,WeatherCatV1.12B45,2013-06-05 16:52:00,
2013-06-05 09:57:00,73.2,33.2,30.47,ENE,76,0.0,2.7,23,0.00,,,0.00,WeatherCatV1.12B45,2013-06-05 16:57:00,
2013-06-05 10:02:00,72.5,31.5,30.47,NNE,28,3.1,3.1,22,0.00,,,0.00,WeatherCatV1.12B45,2013-06-05 17:02:00,
2013-06-05 10:07:00,72.1,31.2,30.47,NNE,27,2.7,4.0,22,0.00,,,0.00,WeatherCatV1.12B45,2013-06-05 17:07:00,
2013-06-05 10:12:00,71.4,31.7,30.47,SE,127,2.2,4.0,23,0.00,,,0.00,WeatherCatV1.12B45,2013-06-05 17:12:00,
2013-06-05 10:17:00,71.1,32.4,30.47,NNE,19,2.7,5.4,24,0.00,,,0.00,WeatherCatV1.12B45,2013-06-05 17:17:00,
2013-06-05 10:22:00,71.2,32.6,30.47,East,98,0.0,0.0,24,0.00,,,0.00,WeatherCatV1.12B45,2013-06-05 17:22:00,
2013-06-05 10:28:00,71.8,32.0,30.47,ESE,121,3.1,5.8,23,0.00,,,0.00,WeatherCatV1.12B45,2013-06-05 17:28:00,
2013-06-05 10:33:00,72.1,34.4,30.47,SSW,212,0.0,0.0,25,0.00,,,0.00,WeatherCatV1.12B45,2013-06-05 17:33:00,
2013-06-05 10:38:00,72.3,33.5,30.47,NNE,12,2.7,3.6,24,0.00,,,0.00,WeatherCatV1.12B45,2013-06-05 17:38:00,
2013-06-05 10:43:00,72.3,33.5,30.47,East,93,2.7,3.1,24,0.00,,,0.00,WeatherCatV1.12B45,2013-06-05 17:43:00,
2013-06-05 10:48:00,77.4,34.4,30.47,East,93,0.0,0.0,21,0.00,,,0.00,WeatherCatV1.12B45,2013-06-05 17:48:00,
2013-06-05 10:53:00,79.2,34.6,30.47,ENE,58,2.7,4.0,20,0.00,,,0.00,WeatherCatV1.12B45,2013-06-05 17:53:00,
2013-06-05 10:58:00,77.2,33.0,30.47,NNE,27,3.1,4.0,20,0.00,,,0.00,WeatherCatV1.12B45,2013-06-05 17:58:00,
2013-06-05 11:03:00,75.0,32.4,30.47,NNE,17,0.0,3.1,21,0.00,,,0.00,WeatherCatV1.12B45,2013-06-05 18:03:00,
2013-06-05 11:08:00,74.5,33.1,30.47,NE,48,3.6,4.0,22,0.00,,,0.00,WeatherCatV1.12B45,2013-06-05 18:08:00,
2013-06-05 11:13:00,74.1,31.7,30.47,SE,138,0.0,0.0,21,0.00,,,0.00,WeatherCatV1.12B45,2013-06-05 18:13:00,
2013-06-05 11:18:00,74.7,33.3,30.47,NNE,27,3.6,3.6,22,0.00,,,0.00,WeatherCatV1.12B45,2013-06-05 18:18:00,
2013-06-05 11:23:00,74.8,33.4,30.47,WSW,245,3.1,3.1,22,0.00,,,0.00,WeatherCatV1.12B45,2013-06-05 18:23:00,
2013-06-05 11:28:00,75.2,31.4,30.47,North,10,2.7,3.6,20,0.00,,,0.00,WeatherCatV1.12B45,2013-06-05 18:28:00,
2013-06-05 11:33:00,75.0,28.6,30.47,NNE,30,4.0,4.0,18,0.00,,,0.00,WeatherCatV1.12B45,2013-06-05 18:33:00,
2013-06-05 11:38:00,74.5,32.0,30.47,South,186,4.0,4.0,21,0.00,,,0.00,WeatherCatV1.12B45,2013-06-05 18:38:00,
2013-06-05 11:43:00,74.5,32.0,30.47,West,279,3.1,4.9,21,0.00,,,0.00,WeatherCatV1.12B45,2013-06-05 18:43:00,
2013-06-05 11:48:00,74.5,32.0,30.47,NNE,31,0.0,0.0,21,0.00,,,0.00,WeatherCatV1.12B45,2013-06-05 18:48:00,
2013-06-05 11:53:00,74.8,32.3,30.47,NW,324,2.7,5.8,21,0.00,,,0.00,WeatherCatV1.12B45,2013-06-05 18:53:00,
2013-06-05 11:58:00,74.8,28.5,30.47,NE,40,4.0,4.0,18,0.00,,,0.00,WeatherCatV1.12B45,2013-06-05 18:58:00,
2013-06-05 12:03:00,75.0,32.4,30.47,WNW,284,0.0,0.0,21,0.00,,,0.00,WeatherCatV1.12B45,2013-06-05 19:03:00,
2013-06-05 12:08:00,75.2,32.6,30.47,West,261,4.0,5.4,21,0.00,,,0.00,WeatherCatV1.12B45,2013-06-05 19:08:00,
2013-06-05 12:13:00,75.9,33.2,30.47,NNW,328,4.0,4.9,21,0.00,,,0.00,WeatherCatV1.12B45,2013-06-05 19:13:00,
2013-06-05 12:18:00,76.1,32.1,30.47,WSW,241,4.0,5.4,20,0.00,,,0.00,WeatherCatV1.12B45,2013-06-05 19:18:00,
2013-06-05 12:23:00,76.1,33.3,30.47,NNW,348,0.0,2.7,21,0.00,,,0.00,WeatherCatV1.12B45,2013-06-05 19:23:00,
2013-06-05 12:28:00,75.9,29.4,30.47,North,9,0.0,0.0,18,0.00,,,0.00,WeatherCatV1.12B45,2013-06-05 19:28:00,
2013-06-05 12:33:00,76.3,33.5,30.47,NE,52,4.9,4.9,21,0.00,,,0.00,WeatherCatV1.12B45,2013-06-05 19:33:00,
2013-06-05 12:38:00,76.8,32.7,30.47,SSW,199,0.0,3.6,20,0.00,,,0.00,WeatherCatV1.12B45,2013-06-05 19:38:00,
2013-06-05 12:43:00,77.2,33.0,30.47,WSW,240,2.7,3.6,20,0.00,,,0.00,WeatherCatV1.12B45,2013-06-05 19:43:00,
2013-06-05 12:48:00,77.5,30.7,30.44,West,268,0.0,4.9,18,0.00,,,0.00,WeatherCatV1.12B45,2013-06-05 19:48:00,
2013-06-05 12:53:00,77.5,30.7,30.44,NE,38,3.1,5.8,18,0.00,,,0.00,WeatherCatV1.12B45,2013-06-05 19:53:00,
2013-06-05 12:58:00,77.9,31.0,30.44,SE,124,2.2,4.9,18,0.00,,,0.00,WeatherCatV1.12B45,2013-06-05 19:58:00,
2013-06-05 13:03:00,78.1,26.7,30.44,ENE,73,0.0,0.0,15,0.00,,,0.00,WeatherCatV1.12B45,2013-06-05 20:03:00,
2013-06-05 13:08:00,78.6,27.1,30.44,SE,133,2.2,4.9,15,0.00,,,0.00,WeatherCatV1.12B45,2013-06-05 20:08:00,
2013-06-05 13:13:00,78.8,30.3,30.44,West,270,3.6,3.6,17,0.00,,,0.00,WeatherCatV1.12B45,2013-06-05 20:13:00,
2013-06-05 13:18:00,78.4,27.0,30.44,West,279,4.0,4.0,15,0.00,,,0.00,WeatherCatV1.12B45,2013-06-05 20:18:00,
2013-06-05 13:23:00,77.7,30.8,30.44,SSE,166,4.9,7.6,18,0.00,,,0.00,WeatherCatV1.12B45,2013-06-05 20:23:00,
2013-06-05 13:28:00,78.1,26.7,30.44,SE,133,0.0,2.7,15,0.00,,,0.00,WeatherCatV1.12B45,2013-06-05 20:28:00,
2013-06-05 13:33:00,78.4,27.0,30.44,NNW,330,4.0,5.4,15,0.00,,,0.00,WeatherCatV1.12B45,2013-06-05 20:33:00,
2013-06-05 13:38:00,79.2,30.6,30.44,SW,226,3.1,3.1,17,0.00,,,0.00,WeatherCatV1.12B45,2013-06-05 20:38:00,
2013-06-05 13:43:00,80.1,28.2,30.44,SSW,195,0.0,5.8,15,0.00,,,0.00,WeatherCatV1.12B45,2013-06-05 20:43:00,
2013-06-05 13:48:00,79.7,28.0,30.44,SSW,209,3.1,5.4,15,0.00,,,0.00,WeatherCatV1.12B45,2013-06-05 20:48:00,
2013-06-05 13:53:00,79.2,27.5,30.44,West,270,2.7,4.0,15,0.00,,,0.00,WeatherCatV1.12B45,2013-06-05 20:53:00,
2013-06-05 13:58:00,79.5,27.8,30.44,South,184,4.0,5.8,15,0.00,,,0.00,WeatherCatV1.12B45,2013-06-05 20:58:00,
2013-06-05 14:03:00,79.9,28.1,30.44,West,263,3.1,5.8,15,0.00,,,0.00,WeatherCatV1.12B45,2013-06-05 21:03:00,
2013-06-05 14:08:00,80.8,31.9,30.44,West,264,4.5,8.1,17,0.00,,,0.00,WeatherCatV1.12B45,2013-06-05 21:08:00,
2013-06-05 14:13:00,81.1,27.4,30.44,West,274,5.8,5.8,14,0.00,,,0.00,WeatherCatV1.12B45,2013-06-05 21:13:00,
2013-06-05 14:18:00,82.2,28.3,30.41,WSW,237,2.2,2.7,14,0.00,,,0.00,WeatherCatV1.12B45,2013-06-05 21:18:00,
2013-06-05 14:23:00,82.8,22.9,30.41,SSE,159,2.7,5.4,11,0.00,,,0.00,WeatherCatV1.12B45,2013-06-05 21:23:00,
2013-06-05 14:28:00,84.7,28.4,30.41,SSE,164,4.0,4.9,13,0.00,,,0.00,WeatherCatV1.12B45,2013-06-05 21:28:00,
2013-06-05 14:33:00,83.8,23.7,30.41,West,259,3.6,4.5,11,0.00,,,0.00,WeatherCatV1.12B45,2013-06-05 21:33:00,
2013-06-05 14:38:00,86.0,25.4,30.41,WSW,247,6.3,6.3,11,0.00,,,0.00,WeatherCatV1.12B45,2013-06-05 21:38:00,
2013-06-05 14:43:00,87.6,26.6,30.41,WNW,287,2.7,3.1,11,0.00,,,0.00,WeatherCatV1.12B45,2013-06-05 21:43:00,
2013-06-05 14:48:00,88.9,25.3,30.41,SW,214,4.0,5.8,10,0.00,,,0.00,WeatherCatV1.12B45,2013-06-05 21:48:00,
2013-06-05 14:53:00,90.0,17.7,30.41,SSW,213,2.7,4.9,7,0.00,,,0.00,WeatherCatV1.12B45,2013-06-05 21:53:00,
2013-06-05 14:58:00,88.9,20.0,30.41,SW,228,3.1,4.0,8,0.00,,,0.00,WeatherCatV1.12B45,2013-06-05 21:58:00,
2013-06-05 15:03:00,86.2,25.5,30.41,SW,232,4.0,10.1,11,0.00,,,0.00,WeatherCatV1.12B45,2013-06-05 22:03:00,
2013-06-05 15:08:00,86.0,17.9,30.41,East,96,4.0,4.0,8,0.00,,,0.00,WeatherCatV1.12B45,2013-06-05 22:08:00,
2013-06-05 15:13:00,83.5,18.7,30.41,WSW,250,2.2,4.0,9,0.00,,,0.00,WeatherCatV1.12B45,2013-06-05 22:13:00,
2013-06-05 15:18:00,83.3,18.6,30.38,South,178,2.2,2.7,9,0.00,,,0.00,WeatherCatV1.12B45,2013-06-05 22:18:00,
2013-06-05 15:23:00,83.1,23.2,30.38,SW,220,2.2,3.1,11,0.00,,,0.00,WeatherCatV1.12B45,2013-06-05 22:23:00,
2013-06-05 15:28:00,84.7,24.4,30.38,South,190,3.1,3.1,11,0.00,,,0.00,WeatherCatV1.12B45,2013-06-05 22:28:00,
2013-06-05 15:33:00,87.3,26.3,30.41,SE,125,0.0,5.8,11,0.00,,,0.00,WeatherCatV1.12B45,2013-06-05 22:33:00,
2013-06-05 15:38:00,87.8,24.5,30.41,NW,316,0.0,4.0,10,0.00,,,0.00,WeatherCatV1.12B45,2013-06-05 22:38:00,
2013-06-05 15:43:00,88.5,19.7,30.41,NNW,348,3.6,3.6,8,0.00,,,0.00,WeatherCatV1.12B45,2013-06-05 22:43:00,
2013-06-05 15:48:00,87.4,18.9,30.41,SE,128,3.1,3.1,8,0.00,,,0.00,WeatherCatV1.12B45,2013-06-05 22:48:00,
2013-06-05 15:53:00,86.2,18.0,30.41,SSE,168,0.0,2.2,8,0.00,,,0.00,WeatherCatV1.12B45,2013-06-05 22:53:00,
2013-06-05 15:58:00,87.1,18.7,30.41,WSW,250,0.0,3.1,8,0.00,,,0.00,WeatherCatV1.12B45,2013-06-05 22:58:00,
2013-06-05 16:03:00,86.9,18.5,30.41,WNW,298,2.7,3.1,8,0.00,,,0.00,WeatherCatV1.12B45,2013-06-05 23:03:00,
2013-06-05 16:08:00,87.1,18.7,30.41,East,98,6.3,8.1,8,0.00,,,0.00,WeatherCatV1.12B45,2013-06-05 23:08:00,
2013-06-05 16:13:00,84.4,16.7,30.41,SSE,163,4.0,4.0,8,0.00,,,0.00,WeatherCatV1.12B45,2013-06-05 23:13:00,
2013-06-05 16:18:00,83.5,18.7,30.41,West,264,3.1,3.1,9,0.00,,,0.00,WeatherCatV1.12B45,2013-06-05 23:18:00,
2013-06-05 16:23:00,85.3,17.3,30.41,WSW,257,5.8,8.1,8,0.00,,,0.00,WeatherCatV1.12B45,2013-06-05 23:23:00,
2013-06-05 16:28:00,86.0,17.9,30.41,NE,54,2.7,4.9,8,0.00,,,0.00,WeatherCatV1.12B45,2013-06-05 23:28:00,
2013-06-05 16:33:00,86.0,17.9,30.41,NNW,338,4.0,5.4,8,0.00,,,0.00,WeatherCatV1.12B45,2013-06-05 23:33:00,
2013-06-05 16:38:00,84.4,16.7,30.41,West,262,4.0,8.7,8,0.00,,,0.00,WeatherCatV1.12B45,2013-06-05 23:38:00,
2013-06-05 16:43:00,82.2,17.8,30.41,North,357,2.2,5.4,9,0.00,,,0.00,WeatherCatV1.12B45,2013-06-05 23:43:00,
2013-06-05 16:48:00,81.3,17.1,30.38,WNW,294,0.0,5.4,9,0.00,,,0.00,WeatherCatV1.12B45,2013-06-05 23:48:00,
2013-06-05 16:53:00,81.1,17.0,30.38,East,80,0.0,0.0,9,0.00,,,0.00,WeatherCatV1.12B45,2013-06-05 23:53:00,
2013-06-05 16:58:00,81.0,16.8,30.38,NW,319,2.7,4.0,9,0.00,,,0.00,WeatherCatV1.12B45,2013-06-05 23:58:00,
2013-06-05 17:03:00,81.3,17.1,30.38,SW,216,2.7,3.1,9,0.00,,,0.00,WeatherCatV1.12B45,2013-06-06 00:03:00,
2013-06-05 17:08:00,81.0,16.8,30.38,West,265,0.0,2.7,9,0.00,,,0.00,WeatherCatV1.12B45,2013-06-06 00:08:00,
2013-06-05 17:13:00,80.2,18.7,30.38,NW,305,2.7,4.9,10,0.00,,,0.00,WeatherCatV1.12B45,2013-06-06 00:13:00,
2013-06-05 17:18:00,80.1,18.6,30.38,NW,321,0.0,3.6,10,0.00,,,0.00,WeatherCatV1.12B45,2013-06-06 00:18:00,
2013-06-05 17:23:00,80.4,18.9,30.38,WSW,258,4.0,5.4,10,0.00,,,0.00,WeatherCatV1.12B45,2013-06-06 00:23:00,
2013-06-05 17:28:00,80.1,18.6,30.38,West,268,3.1,5.8,10,0.00,,,0.00,WeatherCatV1.12B45,2013-06-06 00:28:00,
2013-06-05 17:33:00,79.5,18.2,30.38,SSW,192,3.6,7.6,10,0.00,,,0.00,WeatherCatV1.12B45,2013-06-06 00:33:00,
2013-06-05 17:38:00,79.5,18.2,30.38,South,178,2.2,3.6,10,0.00,,,0.00,WeatherCatV1.12B45,2013-06-06 00:38:00,
2013-06-05 17:43:00,79.7,18.3,30.38,East,96,5.4,5.4,10,0.00,,,0.00,WeatherCatV1.12B45,2013-06-06 00:43:00,
2013-06-05 17:48:00,79.5,18.2,30.38,West,259,0.0,5.8,10,0.00,,,0.00,WeatherCatV1.12B45,2013-06-06 00:48:00,
2013-06-05 17:53:00,78.8,17.6,30.38,WSW,246,0.0,3.6,10,0.00,,,0.00,WeatherCatV1.12B45,2013-06-06 00:53:00,
2013-06-05 17:58:00,78.3,17.2,30.38,WNW,302,3.1,5.8,10,0.00,,,0.00,WeatherCatV1.12B45,2013-06-06 00:58:00,
2013-06-05 18:03:00,78.1,17.1,30.38,NW,304,2.7,5.8,10,0.00,,,0.00,WeatherCatV1.12B45,2013-06-06 01:03:00,
2013-06-05 18:08:00,77.9,23.1,30.38,WSW,257,2.7,3.6,13,0.00,,,0.00,WeatherCatV1.12B45,2013-06-06 01:08:00,
2013-06-05 18:13:00,78.1,17.1,30.38,WNW,291,3.6,4.9,10,0.00,,,0.00,WeatherCatV1.12B45,2013-06-06 01:13:00,
2013-06-05 18:19:00,78.3,23.4,30.38,SSE,153,3.1,5.4,13,0.00,,,0.00,WeatherCatV1.12B45,2013-06-06 01:19:00,
2013-06-05 18:24:00,77.7,16.8,30.38,West,272,3.1,6.3,10,0.00,,,0.00,WeatherCatV1.12B45,2013-06-06 01:24:00,
2013-06-05 18:29:00,77.5,16.7,30.38,WNW,292,0.0,0.0,10,0.00,,,0.00,WeatherCatV1.12B45,2013-06-06 01:29:00,
2013-06-05 18:34:00,77.2,16.4,30.38,WNW,284,3.1,3.1,10,0.00,,,0.00,WeatherCatV1.12B45,2013-06-06 01:34:00,
2013-06-05 18:39:00,76.8,16.1,30.38,West,265,2.2,4.0,10,0.00,,,0.00,WeatherCatV1.12B45,2013-06-06 01:39:00,
2013-06-05 18:44:00,76.6,16.0,30.38,West,273,3.6,3.6,10,0.00,,,0.00,WeatherCatV1.12B45,2013-06-06 01:44:00,
2013-06-05 18:49:00,76.5,15.9,30.38,NNW,336,0.0,3.6,10,0.00,,,0.00,WeatherCatV1.12B45,2013-06-06 01:49:00,
2013-06-05 18:54:00,75.9,15.4,30.38,East,101,0.0,0.0,10,0.00,,,0.00,WeatherCatV1.12B45,2013-06-06 01:54:00,
2013-06-05 18:59:00,75.9,15.4,30.38,SW,230,0.0,3.6,10,0.00,,,0.00,WeatherCatV1.12B45,2013-06-06 01:59:00,
2013-06-05 19:04:00,75.6,15.2,30.38,North,357,0.0,0.0,10,0.00,,,0.00,WeatherCatV1.12B45,2013-06-06 02:04:00,
2013-06-05 19:09:00,75.4,21.1,30.38,SSW,201,4.0,4.0,13,0.00,,,0.00,WeatherCatV1.12B45,2013-06-06 02:09:00,
2013-06-05 19:14:00,75.0,20.8,30.38,West,277,0.0,0.0,13,0.00,,,0.00,WeatherCatV1.12B45,2013-06-06 02:14:00,
2013-06-05 19:19:00,74.7,20.6,30.38,WSW,247,0.0,0.0,13,0.00,,,0.00,WeatherCatV1.12B45,2013-06-06 02:19:00,
2013-06-05 19:24:00,74.3,20.3,30.38,SSW,204,0.0,5.8,13,0.00,,,0.00,WeatherCatV1.12B45,2013-06-06 02:24:00,
2013-06-05 19:29:00,74.1,20.1,30.38,South,189,0.0,2.7,13,0.00,,,0.00,WeatherCatV1.12B45,2013-06-06 02:29:00,
2013-06-05 19:34:00,73.4,19.6,30.38,ESE,109,0.0,0.0,13,0.00,,,0.00,WeatherCatV1.12B45,2013-06-06 02:34:00,
2013-06-05 19:39:00,72.7,23.9,30.38,SW,233,0.0,0.0,16,0.00,,,0.00,WeatherCatV1.12B45,2013-06-06 02:39:00,
2013-06-05 19:44:00,72.0,27.5,30.38,SW,234,0.0,0.0,19,0.00,,,0.00,WeatherCatV1.12B45,2013-06-06 02:44:00,
2013-06-05 19:49:00,71.4,27.0,30.38,SSW,192,0.0,0.0,19,0.00,,,0.00,WeatherCatV1.12B45,2013-06-06 02:49:00,
2013-06-05 19:54:00,71.1,30.3,30.38,SSW,192,0.0,0.0,22,0.00,,,0.00,WeatherCatV1.12B45,2013-06-06 02:54:00,
2013-06-05 19:59:00,70.5,29.8,30.38,SSW,192,0.0,0.0,22,0.00,,,0.00,WeatherCatV1.12B45,2013-06-06 02:59:00,
2013-06-05 20:04:00,70.2,30.6,30.38,SW,218,0.0,0.0,23,0.00,,,0.00,WeatherCatV1.12B45,2013-06-06 03:04:00,
2013-06-05 20:09:00,69.6,30.2,30.38,SW,219,0.0,0.0,23,0.00,,,0.00,WeatherCatV1.12B45,2013-06-06 03:09:00,
2013-06-05 20:14:00,69.3,29.9,30.38,SW,219,0.0,0.0,23,0.00,,,0.00,WeatherCatV1.12B45,2013-06-06 03:14:00,
2013-06-05 20:19:00,68.9,30.6,30.38,SW,219,0.0,0.0,24,0.00,,,0.00,WeatherCatV1.12B45,2013-06-06 03:19:00,
2013-06-05 20:24:00,68.5,30.3,30.38,SW,219,0.0,0.0,24,0.00,,,0.00,WeatherCatV1.12B45,2013-06-06 03:24:00,
2013-06-05 20:29:00,68.4,31.2,30.38,SW,219,0.0,0.0,25,0.00,,,0.00,WeatherCatV1.12B45,2013-06-06 03:29:00,
2013-06-05 20:34:00,68.2,31.0,30.38,SW,219,0.0,0.0,25,0.00,,,0.00,WeatherCatV1.12B45,2013-06-06 03:34:00,
2013-06-05 20:39:00,68.4,31.2,30.38,SSW,196,0.0,0.0,25,0.00,,,0.00,WeatherCatV1.12B45,2013-06-06 03:39:00,
2013-06-05 20:44:00,68.0,30.9,30.38,SSW,207,0.0,0.0,25,0.00,,,0.00,WeatherCatV1.12B45,2013-06-06 03:44:00,
2013-06-05 20:49:00,67.8,31.7,30.35,SSW,198,0.0,0.0,26,0.00,,,0.00,WeatherCatV1.12B45,2013-06-06 03:49:00,
2013-06-05 20:54:00,67.6,31.5,30.35,SSW,206,2.2,2.7,26,0.00,,,0.00,WeatherCatV1.12B45,2013-06-06 03:54:00,
2013-06-05 20:59:00,67.8,30.7,30.35,SW,214,0.0,0.0,25,0.00,,,0.00,WeatherCatV1.12B45,2013-06-06 03:59:00,
2013-06-05 21:01:00,67.8,30.7,30.35,SW,215,0.0,2.7,25,0.00,,,0.00,WeatherCatV1.12B45,2013-06-06 04:01:00,
2013-06-05 21:06:00,68.0,30.9,30.35,SSW,205,0.0,0.0,25,0.00,,,0.00,WeatherCatV1.12B45,2013-06-06 04:06:00,
2013-06-05 21:11:00,68.0,30.9,30.35,South,184,0.0,0.0,25,0.00,,,0.00,WeatherCatV1.12B45,2013-06-06 04:11:00,
2013-06-05 21:16:00,68.0,30.9,30.35,South,184,0.0,0.0,25,0.00,,,0.00,WeatherCatV1.12B45,2013-06-06 04:16:00,
2013-06-05 21:21:00,67.8,30.7,30.38,South,184,0.0,0.0,25,0.00,,,0.00,WeatherCatV1.12B45,2013-06-06 04:21:00,
2013-06-05 21:26:00,67.6,30.6,30.38,SSW,193,0.0,0.0,25,0.00,,,0.00,WeatherCatV1.12B45,2013-06-06 04:26:00,
2013-06-05 21:31:00,67.5,30.4,30.38,SSW,193,0.0,2.2,25,0.00,,,0.00,WeatherCatV1.12B45,2013-06-06 04:31:00,
2013-06-05 21:36:00,67.5,31.4,30.35,South,177,0.0,3.1,26,0.00,,,0.00,WeatherCatV1.12B45,2013-06-06 04:36:00,
2013-06-05 21:41:00,67.3,30.3,30.35,South,181,0.0,2.7,25,0.00,,,0.00,WeatherCatV1.12B45,2013-06-06 04:41:00,
2013-06-05 21:46:00,66.9,29.9,30.35,SSW,200,0.0,0.0,25,0.00,,,0.00,WeatherCatV1.12B45,2013-06-06 04:46:00,
2013-06-05 21:51:00,66.7,30.8,30.38,South,170,0.0,0.0,26,0.00,,,0.00,WeatherCatV1.12B45,2013-06-06 04:51:00,
2013-06-05 21:56:00,66.2,30.3,30.38,South,180,0.0,0.0,26,0.00,,,0.00,WeatherCatV1.12B45,2013-06-06 04:56:00,
2013-06-05 22:01:00,65.8,30.9,30.38,SW,219,0.0,0.0,27,0.00,,,0.00,WeatherCatV1.12B45,2013-06-06 05:01:00,
2013-06-05 22:06:00,65.5,30.6,30.38,SW,221,0.0,0.0,27,0.00,,,0.00,WeatherCatV1.12B45,2013-06-06 05:06:00,
2013-06-05 22:11:00,65.5,30.6,30.38,SW,215,0.0,0.0,27,0.00,,,0.00,WeatherCatV1.12B45,2013-06-06 05:11:00,
2013-06-05 22:16:00,65.3,31.4,30.38,SW,217,0.0,0.0,28,0.00,,,0.00,WeatherCatV1.12B45,2013-06-06 05:16:00,
2013-06-05 22:21:00,65.5,30.6,30.38,SSW,210,0.0,0.0,27,0.00,,,0.00,WeatherCatV1.12B45,2013-06-06 05:21:00,
2013-06-05 22:26:00,65.5,30.6,30.38,SW,225,2.2,2.7,27,0.00,,,0.00,WeatherCatV1.12B45,2013-06-06 05:26:00,
2013-06-05 22:31:00,65.5,30.6,30.38,SW,234,0.0,0.0,27,0.00,,,0.00,WeatherCatV1.12B45,2013-06-06 05:31:00,
2013-06-05 22:36:00,65.7,30.8,30.38,South,189,0.0,2.2,27,0.00,,,0.00,WeatherCatV1.12B45,2013-06-06 05:36:00,
2013-06-05 22:41:00,65.7,30.8,30.38,SW,227,3.1,3.1,27,0.00,,,0.00,WeatherCatV1.12B45,2013-06-06 05:41:00,
2013-06-05 22:46:00,66.2,30.3,30.38,SW,222,0.0,0.0,26,0.00,,,0.00,WeatherCatV1.12B45,2013-06-06 05:46:00,
2013-06-05 22:51:00,66.2,30.3,30.38,SSW,199,2.7,2.7,26,0.00,,,0.00,WeatherCatV1.12B45,2013-06-06 05:51:00,
2013-06-05 22:56:00,66.0,30.1,30.38,South,174,0.0,3.1,26,0.00,,,0.00,WeatherCatV1.12B45,2013-06-06 05:56:00,
2013-06-05 23:01:00,65.8,30.9,30.38,South,174,0.0,0.0,27,0.00,,,0.00,WeatherCatV1.12B45,2013-06-06 06:01:00,
2013-06-05 23:06:00,65.5,30.6,30.35,WSW,257,0.0,0.0,27,0.00,,,0.00,WeatherCatV1.12B45,2013-06-06 06:06:00,
2013-06-05 23:11:00,65.5,29.7,30.35,SW,221,0.0,0.0,26,0.00,,,0.00,WeatherCatV1.12B45,2013-06-06 06:11:00,
2013-06-05 23:16:00,65.5,30.6,30.35,SW,227,3.1,3.1,27,0.00,,,0.00,WeatherCatV1.12B45,2013-06-06 06:16:00,
2013-06-05 23:21:00,65.3,31.4,30.35,South,170,2.7,4.5,28,0.00,,,0.00,WeatherCatV1.12B45,2013-06-06 06:21:00,
2013-06-05 23:26:00,65.5,30.6,30.35,SSW,205,2.2,3.1,27,0.00,,,0.00,WeatherCatV1.12B45,2013-06-06 06:26:00,
2013-06-05 23:31:00,65.5,30.6,30.35,SW,226,0.0,0.0,27,0.00,,,0.00,WeatherCatV1.12B45,2013-06-06 06:31:00,
2013-06-05 23:36:00,65.3,30.5,30.35,SW,226,0.0,0.0,27,0.00,,,0.00,WeatherCatV1.12B45,2013-06-06 06:36:00,
2013-06-05 23:41:00,64.8,31.8,30.35,SW,226,0.0,0.0,29,0.00,,,0.00,WeatherCatV1.12B45,2013-06-06 06:41:00,
2013-06-05 23:46:00,64.0,32.0,30.35,SW,231,0.0,0.0,30,0.00,,,0.00,WeatherCatV1.12B45,2013-06-06 06:46:00,
2013-06-05 23:51:00,63.9,32.6,30.38,SW,224,2.2,2.7,31,0.00,,,0.00,WeatherCatV1.12B45,2013-06-06 06:51:00,
2013-06-05 23:56:00,63.7,32.5,30.38,SSW,197,0.0,0.0,31,0.00,,,0.00,WeatherCatV1.12B45,2013-06-06 06:56:00,